Regional Weather Roundup
Issued by NWS Sioux Falls, SD

Home | Current Version | Previous Version | Graphics & Text | Print | Product List | Glossary On
Versions: 1 2 3 4 5 6 7 8 9 10 11 12 13 14 15 16 17 18 19 20 21 22 23 24 25 26 27 28 29 30 31 32 33 34 35 36 37 38 39 40 41 42 43 44 45 46 47 48 49 50
000
ASUS43 KFSD 280010
RWRFSD

WEATHER ROUNDUP FOR SE SOUTH DAKOTA/SW MINNESOTA/NW IOWA
NATIONAL WEATHER SERVICE SIOUX FALLS SD
600 PM CST SAT DEC 27 2014

NOTE: "FAIR" INDICATES FEW OR NO CLOUDS BELOW 12,000 FEET WITH NO
SIGNIFICANT WEATHER AND OR OBSTRUCTIONS TO VISIBILITY.


SDZ038>040-050-052>070-280100-
SOUTHEAST SOUTH DAKOTA

CITY           SKY/WX    TMP DP  RH WIND       PRES   REMARKS
CHAMBERLAIN    CLEAR     12  10  92 SW5       30.11S WCI   4
6HR MIN TEMP:  12; 6HR MAX TEMP:  22;

HURON          CLEAR     15   9  76 SW9       30.12S WCI   3
6HR MIN TEMP:  12; 6HR MAX TEMP:  20;

MADISON        FAIR      10  10 100 SW10      30.11R WCI  -3
MITCHELL       CLEAR     16  11  80 S8        30.15S WCI   5
6HR MIN TEMP:  16; 6HR MAX TEMP:  21;

SIOUX FALLS    CLEAR     13   9  84 SW7       30.15S WCI   3
6HR MIN TEMP:  12; 6HR MAX TEMP:  16;

WINNER         FAIR      19  10  68 SW9       30.10F WCI   8
YANKTON        CLEAR     18  12  79 S5        30.20S WCI  11
$$

MNZ071-072-080-081-089-090-097-098-280100-
SOUTHWEST MINNESOTA

CITY           SKY/WX    TMP DP  RH WIND       PRES   REMARKS
FAIRMONT       CLEAR     16   7  67 SW8       30.14S WCI   5
JACKSON        PTCLDY    16   9  73 SW10      30.14S WCI   3
LUVERNE        CLEAR      9   5  85 SW5       30.16S WCI   0
MARSHALL       CLEAR     16   7  67 SW15      30.11R WCI   1
6HR MIN TEMP:  16; 6HR MAX TEMP:  19;

MONTEVIDEO     PTCLDY    18  14  86 CALM      30.12R
PIPESTONE      CLEAR      5   3  92 SW8       30.11R WCI  -8
REDWOOD FALLS  CLEAR     12   7  80 SW7       30.12R WCI   1
TRACY          CLEAR     13   9  82 SW15      30.12R WCI  -2
WINDOM         CLEAR     12   7  79 SW9       30.12F WCI   0
WORTHINGTON    CLEAR     10 -33  12 SW13      30.14S WCI  -5
$$

IAZ001>003-012>014-020>022-031-032-NEZ013-014-SDZ071-280100-
NORTHWEST IOWA

CITY           SKY/WX    TMP DP  RH WIND       PRES   REMARKS
CHEROKEE       CLEAR     11   8  91 CALM      30.21S
DENISON        CLEAR     19  14  79 W6        30.20R WCI  11
ESTHERVILLE    CLEAR     14   9  80 SW9       30.15S WCI   2
LE MARS        CLEAR     12  10  92 CALM      30.22R
ORANGE CITY    CLEAR     10   9  92 SW5       30.18S WCI   2
SHELDON        CLEAR     10   7  85 SW6       30.16S WCI   1
SIOUX CITY     CLEAR     11   8  88 SW3       30.23S
6HR MIN TEMP:  11; 6HR MAX TEMP:  22;

SPENCER        CLEAR     11   6  81 SW9       30.18R WCI  -2
6HR MIN TEMP:  10; 6HR MAX TEMP:  20;

STORM LAKE     CLEAR     12   9  85 W13       30.19R WCI  -3
$$

ABBREVIATIONS USED IN REMARKS
   TC - TEMPERATURE IN CELSIUS
  WCI - WIND CHILL INDEX
   HX - HEAT INDEX
  VSB - VISIBILITY




USA.gov is the U.S. government's official web portal to all federal, state and local government web resources and services.